| time (UTC) | temp F | wind direction | speed MPH | gust MPH | rain 1hr in | rain 24hr in | rain mn in | humidity % | barometer mb |
| 20260506150742 | 63 | 338 | 0.0 | 19.0 | 0.00 | 0.58 | 0.58 | 58 | 1009.4 |
| 20260506150242 | 63 | 28 | 0.0 | 18.0 | 0.00 | 0.58 | 0.58 | 57 | 1009.4 |
| 20260506145742 | 63 | 300 | 0.0 | 0.0 | 0.00 | 0.58 | 0.58 | 60 | 1009.4 |
| 20260506145242 | 63 | 300 | 0.0 | 0.0 | 0.00 | 0.58 | 0.58 | 59 | 1009.4 |
| 20260506144742 | 63 | 300 | 0.0 | 19.0 | 0.00 | 0.58 | 0.58 | 60 | 1009.4 |
| 20260506144242 | 63 | 323 | 0.0 | 15.0 | 0.00 | 0.58 | 0.58 | 61 | 1009.4 |
| 20260506143742 | 62 | 307 | 12.0 | 20.0 | 0.00 | 0.58 | 0.58 | 61 | 1009.5 |
| 20260506143242 | 62 | 300 | 3.0 | 20.0 | 0.00 | 0.58 | 0.58 | 60 | 1009.5 |
| 20260506142742 | 62 | 300 | 0.0 | 19.0 | 0.00 | 0.58 | 0.58 | 60 | 1009.4 |
| 20260506142242 | 62 | 300 | 0.0 | 2.0 | 0.00 | 0.58 | 0.58 | 60 | 1009.5 |
| 20260506141742 | 63 | 300 | 2.0 | 6.0 | 0.00 | 0.58 | 0.58 | 58 | 1009.6 |
| 20260506141242 | 62 | 300 | 0.0 | 18.0 | 0.00 | 0.58 | 0.58 | 61 | 1009.5 |
| 20260506140742 | 62 | 300 | 0.0 | 0.0 | 0.00 | 0.58 | 0.58 | 59 | 1009.5 |
| 20260506140242 | 63 | 300 | 0.0 | 0.0 | 0.00 | 0.58 | 0.58 | 60 | 1009.6 |
| 20260506135742 | 63 | 300 | 0.0 | 1.0 | 0.00 | 0.58 | 0.58 | 59 | 1009.6 |
| 20260506135242 | 63 | 300 | 0.0 | 1.0 | 0.00 | 0.58 | 0.58 | 57 | 1009.7 |
| 20260506134742 | 63 | 300 | 0.0 | 0.0 | 0.00 | 0.58 | 0.58 | 58 | 1009.8 |
| 20260506134242 | 63 | 300 | 0.0 | 0.0 | 0.00 | 0.58 | 0.58 | 57 | 1009.8 |
| 20260506133742 | 62 | 300 | 0.0 | 0.0 | 0.00 | 0.58 | 0.58 | 56 | 1009.9 |
| 20260506133242 | 63 | 300 | 0.0 | 0.0 | 0.00 | 0.58 | 0.58 | 55 | 1009.9 |
| 20260506132742 | 63 | 300 | 0.0 | 0.0 | 0.00 | 0.58 | 0.58 | 54 | 1010.0 |
| 20260506132242 | 63 | 300 | 0.0 | 0.0 | 0.00 | 0.58 | 0.58 | 57 | 1010.0 |
| 20260506131742 | 63 | 300 | 0.0 | 0.0 | 0.00 | 0.58 | 0.58 | 58 | 1010.0 |
| 20260506131242 | 62 | 300 | 0.0 | 7.0 | 0.00 | 0.58 | 0.58 | 58 | 1010.0 |
| 20260506130742 | 63 | 300 | 0.0 | 17.0 | 0.00 | 0.58 | 0.58 | 59 | 1010.0 |
| 20260506130242 | 62 | 317 | 14.0 | 16.0 | 0.00 | 0.58 | 0.58 | 58 | 1010.0 |
| 20260506125742 | 63 | 300 | 0.0 | 15.0 | 0.00 | 0.58 | 0.58 | 59 | 1010.0 |
| 20260506125242 | 62 | 299 | 11.0 | 18.0 | 0.00 | 0.58 | 0.58 | 59 | 1009.9 |
| 20260506124742 | 62 | 300 | 1.0 | 20.0 | 0.00 | 0.58 | 0.58 | 57 | 1009.9 |
| 20260506124242 | 63 | 300 | 0.0 | 0.0 | 0.00 | 0.58 | 0.58 | 57 | 1010.0 |
| 20260506123742 | 63 | 300 | 0.0 | 0.0 | 0.00 | 0.58 | 0.58 | 58 | 1009.9 |
| 20260506123242 | 63 | 300 | 0.0 | 0.0 | 0.00 | 0.58 | 0.58 | 59 | 1009.9 |
| 20260506122742 | 63 | 300 | 0.0 | 0.0 | 0.00 | 0.58 | 0.58 | 59 | 1010.0 |
| 20260506122242 | 63 | 300 | 0.0 | 0.0 | 0.00 | 0.58 | 0.58 | 59 | 1009.9 |
| 20260506121742 | 63 | 300 | 0.0 | 5.0 | 0.00 | 0.58 | 0.58 | 61 | 1010.0 |
| 20260506121242 | 62 | 300 | 0.0 | 0.0 | 0.00 | 0.58 | 0.58 | 62 | 1010.0 |
| 20260506120742 | 62 | 300 | 0.0 | 18.0 | 0.00 | 0.58 | 0.58 | 61 | 1010.0 |
| 20260506120243 | 62 | 300 | 0.0 | 14.0 | 0.00 | 0.58 | 0.58 | 63 | 1010.0 |
| 20260506115743 | 62 | 300 | 0.0 | 15.0 | 0.00 | 0.58 | 0.58 | 61 | 1010.0 |
| 20260506115243 | 62 | 324 | 0.0 | 12.0 | 0.00 | 0.58 | 0.58 | 61 | 1010.1 |
| 20260506114743 | 63 | 300 | 0.0 | 0.0 | 0.00 | 0.58 | 0.58 | 61 | 1010.0 |
| 20260506114243 | 63 | 300 | 0.0 | 0.0 | 0.00 | 0.58 | 0.58 | 60 | 1010.1 |
| 20260506113743 | 63 | 300 | 0.0 | 0.0 | 0.00 | 0.58 | 0.58 | 61 | 1010.0 |
| 20260506113243 | 62 | 300 | 0.0 | 0.0 | 0.00 | 0.58 | 0.58 | 62 | 1010.0 |
| 20260506112743 | 62 | 300 | 0.0 | 0.0 | 0.00 | 0.58 | 0.58 | 62 | 1010.0 |
| 20260506112243 | 62 | 300 | 0.0 | 0.0 | 0.00 | 0.58 | 0.58 | 63 | 1010.1 |
| 20260506111743 | 62 | 300 | 0.0 | 6.0 | 0.00 | 0.58 | 0.58 | 62 | 1010.2 |
| 20260506111243 | 62 | 300 | 0.0 | 0.0 | 0.00 | 0.58 | 0.58 | 63 | 1010.1 |
| 20260506110743 | 62 | 300 | 0.0 | 0.0 | 0.00 | 0.58 | 0.58 | 61 | 1010.1 |
| 20260506110243 | 62 | 300 | 0.0 | 0.0 | 0.00 | 0.58 | 0.58 | 60 | 1010.2 |
| 20260506105743 | 62 | 300 | 0.0 | 0.0 | 0.00 | 0.58 | 0.58 | 60 | 1010.2 |
| 20260506105243 | 62 | 300 | 0.0 | 0.0 | 0.00 | 0.58 | 0.58 | 62 | 1010.2 |
| 20260506104743 | 63 | 337 | 0.0 | 0.0 | 0.00 | 0.58 | 0.58 | 60 | 1010.2 |
| 20260506104243 | 62 | 337 | 0.0 | 0.0 | 0.00 | 0.58 | 0.58 | 61 | 1010.2 |
| 20260506103743 | 62 | 337 | 0.0 | 0.0 | 0.00 | 0.58 | 0.58 | 60 | 1010.1 |
| 20260506103243 | 63 | 337 | 0.0 | 0.0 | 0.00 | 0.58 | 0.58 | 59 | 1010.2 |
| 20260506102743 | 63 | 337 | 0.0 | 0.0 | 0.00 | 0.58 | 0.58 | 61 | 1010.1 |
| 20260506102243 | 63 | 337 | 0.0 | 0.0 | 0.00 | 0.58 | 0.58 | 61 | 1010.1 |
| 20260506101743 | 63 | 337 | 0.0 | 0.0 | 0.00 | 0.58 | 0.58 | 61 | 1010.1 |
| 20260506101243 | 62 | 337 | 0.0 | 0.0 | 0.00 | 0.58 | 0.58 | 61 | 1010.1 |
| 20260506100743 | 63 | 337 | 0.0 | 0.0 | 0.00 | 0.58 | 0.58 | 62 | 1010.1 |
| 20260506100243 | 62 | 337 | 0.0 | 0.0 | 0.00 | 0.58 | 0.58 | 63 | 1010.0 |
| 20260506095743 | 63 | 337 | 0.0 | 0.0 | 0.00 | 0.58 | 0.58 | 65 | 1010.0 |
| 20260506095243 | 62 | 337 | 0.0 | 0.0 | 0.00 | 0.58 | 0.58 | 64 | 1010.1 |
| 20260506094743 | 62 | 337 | 0.0 | 0.0 | 0.00 | 0.58 | 0.58 | 65 | 1010.1 |
| 20260506094243 | 62 | 337 | 0.0 | 0.0 | 0.00 | 0.58 | 0.58 | 64 | 1010.0 |
| 20260506093743 | 62 | 337 | 0.0 | 0.0 | 0.00 | 0.58 | 0.58 | 66 | 1009.9 |
| 20260506093243 | 61 | 337 | 0.0 | 0.0 | 0.00 | 0.58 | 0.58 | 65 | 1009.8 |
| 20260506092743 | 62 | 337 | 0.0 | 5.0 | 0.00 | 0.58 | 0.58 | 66 | 1009.9 |
| 20260506092243 | 61 | 337 | 4.0 | 9.0 | 0.00 | 0.58 | 0.58 | 66 | 1009.9 |
| 20260506091743 | 61 | 347 | 0.0 | 0.0 | 0.00 | 0.58 | 0.58 | 66 | 1009.8 |
| 20260506091243 | 61 | 347 | 0.0 | 0.0 | 0.00 | 0.58 | 0.58 | 66 | 1009.7 |
| 20260506090743 | 61 | 347 | 0.0 | 0.0 | 0.00 | 0.58 | 0.58 | 66 | 1009.6 |
| 20260506090243 | 61 | 347 | 0.0 | 0.0 | 0.00 | 0.58 | 0.58 | 67 | 1009.6 |
| 20260506085743 | 61 | 347 | 0.0 | 0.0 | 0.00 | 0.58 | 0.58 | 67 | 1009.6 |
| 20260506085243 | 60 | 347 | 0.0 | 9.0 | 0.00 | 0.58 | 0.58 | 69 | 1009.6 |
| 20260506084743 | 60 | 11 | 4.0 | 7.0 | 0.00 | 0.58 | 0.58 | 71 | 1009.6 |
| 20260506084243 | 59 | 300 | 0.0 | 10.0 | 0.00 | 0.58 | 0.58 | 70 | 1009.6 |
| 20260506083743 | 59 | 341 | 3.0 | 8.0 | 0.00 | 0.58 | 0.58 | 71 | 1009.6 |
| 20260506083243 | 59 | 300 | 0.0 | 8.0 | 0.00 | 0.58 | 0.58 | 71 | 1009.6 |
| 20260506082743 | 59 | 341 | 0.0 | 12.0 | 0.00 | 0.58 | 0.58 | 72 | 1009.7 |
| 20260506082243 | 59 | 323 | 2.0 | 7.0 | 0.00 | 0.58 | 0.58 | 75 | 1009.6 |
| 20260506081743 | 58 | 300 | 2.0 | 7.0 | 0.00 | 0.58 | 0.58 | 75 | 1009.6 |
| 20260506081243 | 58 | 326 | 7.0 | 7.0 | 0.00 | 0.58 | 0.58 | 76 | 1009.6 |
| 20260506080743 | 58 | 300 | 0.0 | 9.0 | 0.00 | 0.58 | 0.58 | 77 | 1009.6 |
| 20260506080243 | 58 | 331 | 0.0 | 9.0 | 0.00 | 0.58 | 0.58 | 79 | 1009.5 |
| 20260506073243 | 56 | 319 | 5.0 | 7.0 | 0.00 | 0.58 | 0.58 | 87 | 1009.3 |
| 20260506072743 | 56 | 320 | 6.0 | 9.0 | 0.00 | 0.58 | 0.58 | 87 | 1009.3 |
| 20260506072243 | 56 | 337 | 7.0 | 8.0 | 0.00 | 0.58 | 0.58 | 88 | 1009.3 |
| 20260506071743 | 55 | 300 | 0.0 | 9.0 | 0.00 | 0.58 | 0.58 | 89 | 1009.3 |
| 20260506071243 | 55 | 300 | 5.0 | 10.0 | 0.00 | 0.58 | 0.58 | 89 | 1009.2 |
| 20260506070743 | 55 | 300 | 9.0 | 10.0 | 0.00 | 0.58 | 0.58 | 90 | 1009.1 |
| 20260506070243 | 55 | 355 | 5.0 | 9.0 | 0.00 | 0.58 | 0.58 | 90 | 1009.0 |
| 20260506062243 | 54 | 331 | 0.0 | 3.0 | 0.00 | 0.58 | 0.58 | 94 | 1008.8 |
| 20260506061743 | 54 | 345 | 0.0 | 7.0 | 0.00 | 0.58 | 0.58 | 94 | 1008.8 |
| 20260506061243 | 54 | 326 | 0.0 | 6.0 | 0.00 | 0.58 | 0.58 | 94 | 1008.7 |
| 20260506060743 | 53 | 350 | 4.0 | 6.0 | 0.00 | 0.58 | 0.58 | 94 | 1008.7 |
| 20260506060243 | 54 | 352 | 0.0 | 7.0 | 0.00 | 0.58 | 0.58 | 94 | 1008.7 |
| 20260506051243 | 53 | 344 | 0.0 | 1.0 | 0.00 | 0.58 | 0.58 | 94 | 1008.2 |
| 20260506050743 | 53 | 357 | 0.0 | 5.0 | 0.00 | 0.58 | 0.58 | 94 | 1008.2 |
| 20260506050243 | 54 | 324 | 0.0 | 7.0 | 0.00 | 0.58 | 0.58 | 94 | 1008.1 |
| 20260506044743 | 54 | 354 | 0.0 | 0.0 | 0.00 | 0.58 | 0.58 | 94 | 1008.0 |
| 20260506044243 | 54 | 354 | 0.0 | 0.0 | 0.00 | 0.58 | 0.58 | 94 | 1007.9 |
| 20260506043743 | 54 | 354 | 0.0 | 0.0 | 0.00 | 0.58 | 0.58 | 94 | 1007.9 |
| 20260506043243 | 54 | 354 | 0.0 | 0.0 | 0.00 | 0.58 | 0.58 | 94 | 1007.8 |
| 20260506042743 | 54 | 354 | 0.0 | 3.0 | 0.00 | 0.58 | 0.58 | 94 | 1007.8 |
| 20260506042243 | 54 | 351 | 1.0 | 4.0 | 0.00 | 0.58 | 0.58 | 94 | 1007.8 |
| 20260506041743 | 54 | 358 | 1.0 | 5.0 | 0.00 | 0.58 | 0.58 | 94 | 1007.8 |
| 20260506041243 | 54 | 7 | 5.0 | 5.0 | 0.00 | 0.58 | 0.58 | 94 | 1007.7 |
| 20260506040743 | 54 | 40 | 0.0 | 0.0 | 0.00 | 0.58 | 0.58 | 94 | 1007.8 |
| 20260506040243 | 54 | 40 | 0.0 | 0.0 | 0.00 | 0.58 | 0.58 | 94 | 1007.9 |
| 20260506035743 | 54 | 40 | 0.0 | 0.0 | 0.00 | 0.58 | 0.58 | 93 | 1007.9 |
| 20260506035243 | 54 | 40 | 0.0 | 0.0 | 0.00 | 0.58 | 0.58 | 93 | 1007.9 |
| 20260506034743 | 54 | 40 | 0.0 | 0.0 | 0.00 | 0.58 | 0.58 | 93 | 1007.8 |
| 20260506034243 | 54 | 40 | 0.0 | 0.0 | 0.00 | 0.58 | 0.58 | 93 | 1007.8 |
| 20260506033743 | 55 | 40 | 0.0 | 0.0 | 0.00 | 0.58 | 0.58 | 93 | 1007.7 |
| 20260506033243 | 54 | 40 | 0.0 | 0.0 | 0.00 | 0.58 | 0.58 | 93 | 1007.7 |
| 20260506032743 | 54 | 40 | 0.0 | 0.0 | 0.00 | 0.58 | 0.58 | 93 | 1007.6 |
| 20260506032243 | 54 | 40 | 0.0 | 0.0 | 0.00 | 0.58 | 0.58 | 93 | 1007.6 |
| 20260506031743 | 54 | 40 | 0.0 | 0.0 | 0.00 | 0.58 | 0.58 | 93 | 1007.4 |
| 20260506031243 | 54 | 40 | 0.0 | 0.0 | 0.00 | 0.58 | 0.58 | 93 | 1007.4 |
| 20260506030743 | 54 | 40 | 0.0 | 3.0 | 0.00 | 0.58 | 0.58 | 93 | 1007.4 |
| 20260506030243 | 54 | 329 | 0.0 | 4.0 | 0.00 | 0.58 | 0.58 | 93 | 1007.6 |
| 20260506025743 | 54 | 300 | 0.0 | 0.0 | 0.00 | 0.58 | 0.58 | 93 | 1007.4 |
| 20260506025243 | 54 | 300 | 0.0 | 0.0 | 0.00 | 0.58 | 0.58 | 93 | 1007.4 |
| 20260506024743 | 54 | 300 | 0.0 | 0.0 | 0.00 | 0.58 | 0.58 | 93 | 1007.3 |
| 20260506024243 | 55 | 300 | 0.0 | 0.0 | 0.00 | 0.58 | 0.58 | 93 | 1007.1 |
| 20260506023743 | 55 | 300 | 0.0 | 0.0 | 0.00 | 0.58 | 0.58 | 93 | 1007.1 |
| 20260506023243 | 55 | 300 | 0.0 | 0.0 | 0.00 | 0.58 | 0.58 | 93 | 1007.1 |
| 20260506022743 | 55 | 300 | 0.0 | 0.0 | 0.00 | 0.58 | 0.58 | 93 | 1007.1 |
| 20260506022243 | 55 | 300 | 0.0 | 0.0 | 0.00 | 0.58 | 0.58 | 93 | 1007.1 |
| 20260506021743 | 55 | 300 | 0.0 | 0.0 | 0.00 | 0.58 | 0.58 | 93 | 1007.0 |
| 20260506021243 | 55 | 300 | 0.0 | 0.0 | 0.00 | 0.58 | 0.58 | 93 | 1006.9 |
| 20260506020743 | 55 | 300 | 0.0 | 0.0 | 0.00 | 0.58 | 0.58 | 93 | 1006.9 |
| 20260506020243 | 55 | 300 | 0.0 | 7.0 | 0.00 | 0.58 | 0.58 | 93 | 1006.8 |
| 20260506015743 | 55 | 300 | 0.0 | 0.0 | 0.01 | 0.58 | 0.58 | 93 | 1006.8 |
| 20260506015243 | 55 | 300 | 0.0 | 0.0 | 0.01 | 0.58 | 0.58 | 93 | 1006.7 |
| 20260506014743 | 55 | 300 | 0.0 | 0.0 | 0.03 | 0.58 | 0.58 | 93 | 1006.7 |
| 20260506014243 | 55 | 300 | 0.0 | 0.0 | 0.04 | 0.58 | 0.58 | 92 | 1006.6 |
| 20260506013743 | 55 | 300 | 0.0 | 0.0 | 0.05 | 0.58 | 0.58 | 92 | 1006.5 |
| 20260506013243 | 55 | 300 | 0.0 | 0.0 | 0.07 | 0.58 | 0.58 | 92 | 1006.5 |
| 20260506012744 | 55 | 300 | 0.0 | 7.0 | 0.09 | 0.58 | 0.58 | 93 | 1006.4 |
| 20260506012243 | 55 | 350 | 0.0 | 7.0 | 0.11 | 0.58 | 0.58 | 92 | 1006.1 |
| 20260506011743 | 55 | 338 | 7.0 | 8.0 | 0.14 | 0.58 | 0.58 | 93 | 1006.1 |
| 20260506011243 | 55 | 1 | 4.0 | 8.0 | 0.16 | 0.58 | 0.58 | 93 | 1006.0 |
| 20260506010744 | 55 | 2 | 4.0 | 9.0 | 0.19 | 0.58 | 0.58 | 92 | 1005.9 |
| 20260506010244 | 55 | 1 | 5.0 | 7.0 | 0.22 | 0.58 | 0.58 | 92 | 1006.0 |
| 20260506005743 | 56 | 47 | 2.0 | 9.0 | 0.22 | 0.57 | 0.57 | 92 | 1006.0 |
| 20260506005243 | 55 | 300 | 1.0 | 9.0 | 0.24 | 0.59 | 0.57 | 92 | 1006.3 |
| 20260506004744 | 56 | 59 | 3.0 | 7.0 | 0.23 | 0.57 | 0.55 | 92 | 1006.6 |
| 20260506004244 | 56 | 182 | 2.0 | 9.0 | 0.25 | 0.56 | 0.54 | 92 | 1007.3 |
| 20260506003744 | 56 | 300 | 0.0 | 0.0 | 0.29 | 0.55 | 0.53 | 92 | 1007.6 |
| 20260506003244 | 56 | 300 | 0.0 | 7.0 | 0.28 | 0.53 | 0.51 | 92 | 1007.8 |
| 20260506002744 | 56 | 109 | 1.0 | 8.0 | 0.27 | 0.51 | 0.49 | 91 | 1007.7 |
| 20260506002244 | 56 | 61 | 5.0 | 6.0 | 0.26 | 0.49 | 0.46 | 91 | 1008.0 |
| 20260506001744 | 56 | 15 | 0.0 | 6.0 | 0.24 | 0.46 | 0.44 | 91 | 1008.5 |
| 20260506001244 | 56 | 2 | 0.0 | 12.0 | 0.24 | 0.44 | 0.42 | 91 | 1008.6 |
| 20260506000744 | 56 | 300 | 0.0 | 9.0 | 0.22 | 0.41 | 0.39 | 92 | 1008.6 |
| 20260506000244 | 57 | 357 | 9.0 | 12.0 | 0.20 | 0.38 | 0.36 | 91 | 1008.5 |
| 20260505235744 | 58 | 336 | 3.0 | 12.0 | 0.23 | 0.37 | 0.35 | 90 | 1008.6 |
| 20260505235244 | 58 | 300 | 9.0 | 9.0 | 0.23 | 0.35 | 0.33 | 90 | 1008.3 |
| 20260505234744 | 58 | 300 | 0.0 | 6.0 | 0.23 | 0.34 | 0.32 | 90 | 1008.3 |
| 20260505234244 | 57 | 345 | 0.0 | 5.0 | 0.20 | 0.31 | 0.29 | 89 | 1008.0 |
| 20260505233744 | 58 | 4 | 3.0 | 5.0 | 0.16 | 0.26 | 0.24 | 89 | 1008.0 |
| 20260505233244 | 57 | 106 | 0.0 | 5.0 | 0.17 | 0.25 | 0.23 | 88 | 1007.9 |
| 20260505232744 | 58 | 106 | 0.0 | 1.0 | 0.20 | 0.24 | 0.22 | 88 | 1007.8 |
| 20260505232244 | 58 | 344 | 0.0 | 4.0 | 0.20 | 0.23 | 0.21 | 87 | 1007.7 |
| 20260505231744 | 58 | 46 | 3.0 | 4.0 | 0.20 | 0.22 | 0.20 | 87 | 1007.7 |
| 20260505231244 | 58 | 22 | 0.0 | 0.0 | 0.18 | 0.20 | 0.18 | 86 | 1007.9 |
| 20260505230744 | 58 | 22 | 0.0 | 0.0 | 0.17 | 0.19 | 0.17 | 86 | 1008.0 |
| 20260505230244 | 58 | 22 | 0.0 | 0.0 | 0.16 | 0.18 | 0.16 | 86 | 1008.0 |
| 20260505225744 | 59 | 22 | 0.0 | 0.0 | 0.12 | 0.14 | 0.12 | 85 | 1008.1 |
| 20260505225244 | 59 | 22 | 0.0 | 0.0 | 0.10 | 0.14 | 0.10 | 85 | 1008.3 |
| 20260505224744 | 59 | 22 | 0.0 | 0.0 | 0.09 | 0.13 | 0.09 | 84 | 1008.4 |
| 20260505224244 | 59 | 22 | 0.0 | 0.0 | 0.09 | 0.13 | 0.09 | 83 | 1008.3 |
| 20260505223744 | 60 | 22 | 0.0 | 1.0 | 0.08 | 0.12 | 0.08 | 83 | 1008.3 |
| 20260505223244 | 59 | 338 | 0.0 | 0.0 | 0.06 | 0.10 | 0.06 | 82 | 1008.3 |
| 20260505222744 | 60 | 338 | 0.0 | 0.0 | 0.02 | 0.06 | 0.02 | 81 | 1008.5 |
| 20260505222244 | 60 | 338 | 0.0 | 0.0 | 0.01 | 0.05 | 0.01 | 79 | 1008.4 |
| 20260505221744 | 60 | 338 | 0.0 | 0.0 | 0.00 | 0.04 | 0.00 | 78 | 1008.4 |
| 20260505221244 | 60 | 338 | 0.0 | 0.0 | 0.00 | 0.04 | 0.00 | 77 | 1008.2 |
| 20260505220744 | 60 | 338 | 0.0 | 0.0 | 0.00 | 0.04 | 0.00 | 77 | 1008.3 |
| 20260505220244 | 61 | 338 | 0.0 | 0.0 | 0.00 | 0.04 | 0.00 | 76 | 1008.2 |
| 20260505215744 | 61 | 338 | 0.0 | 0.0 | 0.00 | 0.04 | 0.21 | 75 | 1008.2 |
| 20260505215244 | 61 | 338 | 0.0 | 0.0 | 0.00 | 0.24 | 0.21 | 74 | 1008.4 |
| 20260505214744 | 61 | 338 | 0.0 | 2.0 | 0.00 | 0.24 | 0.21 | 74 | 1008.5 |
| 20260505214244 | 61 | 344 | 2.0 | 3.0 | 0.00 | 0.24 | 0.21 | 73 | 1008.6 |
| 20260505213744 | 61 | 327 | 0.0 | 2.0 | 0.00 | 0.24 | 0.21 | 73 | 1008.8 |
| 20260505213244 | 61 | 343 | 2.0 | 3.0 | 0.00 | 0.24 | 0.21 | 72 | 1008.9 |
| 20260505212744 | 61 | 355 | 0.0 | 2.0 | 0.00 | 0.24 | 0.21 | 72 | 1009.0 |
| 20260505212244 | 61 | 343 | 2.0 | 2.0 | 0.00 | 0.24 | 0.21 | 72 | 1009.1 |
| 20260505211744 | 60 | 136 | 0.0 | 0.0 | 0.00 | 0.24 | 0.21 | 73 | 1009.2 |
| 20260505211244 | 61 | 136 | 0.0 | 0.0 | 0.00 | 0.24 | 0.21 | 73 | 1009.2 |
| 20260505210744 | 61 | 136 | 0.0 | 2.0 | 0.00 | 0.24 | 0.21 | 73 | 1009.2 |
| 20260505210244 | 60 | 203 | 2.0 | 2.0 | 0.00 | 0.24 | 0.21 | 74 | 1009.3 |
| 20260505205744 | 61 | 75 | 0.0 | 6.0 | 0.00 | 0.24 | 0.21 | 74 | 1009.2 |
| 20260505205244 | 60 | 135 | 1.0 | 5.0 | 0.00 | 0.28 | 0.21 | 74 | 1009.2 |
| 20260505204744 | 60 | 147 | 0.0 | 2.0 | 0.00 | 0.28 | 0.21 | 75 | 1009.3 |
| 20260505204244 | 60 | 300 | 0.0 | 9.0 | 0.00 | 0.28 | 0.21 | 75 | 1009.2 |
| 20260505203744 | 60 | 132 | 1.0 | 5.0 | 0.00 | 0.28 | 0.21 | 76 | 1009.1 |
| 20260505203244 | 60 | 50 | 1.0 | 4.0 | 0.00 | 0.28 | 0.21 | 77 | 1009.0 |
| 20260505202744 | 61 | 129 | 0.0 | 0.0 | 0.00 | 0.28 | 0.21 | 77 | 1008.9 |
| 20260505202244 | 60 | 129 | 0.0 | 0.0 | 0.00 | 0.28 | 0.21 | 77 | 1008.8 |
| 20260505201744 | 60 | 129 | 0.0 | 9.0 | 0.00 | 0.28 | 0.21 | 78 | 1008.8 |
| 20260505201244 | 60 | 129 | 0.0 | 3.0 | 0.00 | 0.28 | 0.21 | 78 | 1008.8 |
| 20260505200744 | 61 | 154 | 1.0 | 8.0 | 0.00 | 0.28 | 0.21 | 78 | 1008.7 |
| 20260505200244 | 61 | 198 | 1.0 | 4.0 | 0.00 | 0.28 | 0.21 | 78 | 1008.7 |
| 20260505195744 | 61 | 164 | 4.0 | 9.0 | 0.00 | 0.28 | 0.21 | 78 | 1008.7 |
| 20260505195244 | 61 | 150 | 2.0 | 10.0 | 0.00 | 0.28 | 0.21 | 78 | 1008.7 |
| 20260505194744 | 61 | 126 | 6.0 | 9.0 | 0.00 | 0.28 | 0.21 | 77 | 1008.7 |
| 20260505194244 | 61 | 220 | 2.0 | 8.0 | 0.00 | 0.28 | 0.21 | 77 | 1008.7 |
| 20260505193744 | 61 | 170 | 4.0 | 9.0 | 0.00 | 0.28 | 0.21 | 76 | 1008.6 |
| 20260505193244 | 61 | 157 | 1.0 | 9.0 | 0.00 | 0.28 | 0.21 | 75 | 1008.7 |
| 20260505192744 | 61 | 188 | 1.0 | 9.0 | 0.00 | 0.28 | 0.21 | 74 | 1008.7 |
| 20260505192244 | 62 | 170 | 7.0 | 9.0 | 0.00 | 0.28 | 0.21 | 72 | 1008.6 |
| 20260505191744 | 62 | 123 | 3.0 | 4.0 | 0.00 | 0.28 | 0.21 | 69 | 1008.6 |
| 20260505191244 | 62 | 66 | 0.0 | 9.0 | 0.00 | 0.28 | 0.21 | 68 | 1008.7 |
| 20260505190744 | 62 | 185 | 3.0 | 8.0 | 0.00 | 0.28 | 0.21 | 67 | 1008.7 |
| 20260505190244 | 62 | 84 | 0.0 | 8.0 | 0.00 | 0.28 | 0.21 | 66 | 1008.7 |
| 20260505185744 | 63 | 126 | 2.0 | 2.0 | 0.00 | 0.28 | 0.21 | 65 | 1008.7 |
| 20260505185244 | 62 | 132 | 0.0 | 9.0 | 0.00 | 0.28 | 0.21 | 64 | 1008.7 |
| 20260505184744 | 63 | 87 | 2.0 | 7.0 | 0.00 | 0.28 | 0.21 | 63 | 1008.9 |
| 20260505184244 | 63 | 126 | 0.0 | 6.0 | 0.00 | 0.28 | 0.21 | 62 | 1008.9 |
| 20260505183744 | 63 | 111 | 0.0 | 8.0 | 0.00 | 0.28 | 0.21 | 61 | 1008.9 |
| 20260505183244 | 64 | 323 | 0.0 | 0.0 | 0.00 | 0.28 | 0.21 | 60 | 1008.9 |
| 20260505182744 | 64 | 323 | 0.0 | 0.0 | 0.00 | 0.28 | 0.21 | 59 | 1009.0 |
| 20260505182244 | 64 | 323 | 0.0 | 0.0 | 0.00 | 0.28 | 0.21 | 59 | 1009.0 |
| 20260505181744 | 64 | 323 | 0.0 | 0.0 | 0.00 | 0.28 | 0.21 | 59 | 1009.0 |
| 20260505181244 | 64 | 323 | 0.0 | 0.0 | 0.00 | 0.28 | 0.21 | 58 | 1009.0 |
| 20260505180744 | 64 | 323 | 0.0 | 0.0 | 0.00 | 0.28 | 0.21 | 58 | 1009.1 |
| 20260505180244 | 65 | 323 | 0.0 | 1.0 | 0.00 | 0.28 | 0.21 | 57 | 1009.1 |
| 20260505175744 | 64 | 334 | 0.0 | 1.0 | 0.00 | 0.28 | 0.21 | 57 | 1009.1 |
| 20260505175244 | 65 | 337 | 0.0 | 3.0 | 0.00 | 0.34 | 0.21 | 56 | 1009.0 |
| 20260505174744 | 65 | 329 | 0.0 | 0.0 | 0.00 | 0.34 | 0.21 | 56 | 1009.1 |
| 20260505174244 | 65 | 330 | 0.0 | 3.0 | 0.00 | 0.34 | 0.21 | 56 | 1009.1 |
| 20260505173744 | 65 | 300 | 2.0 | 3.0 | 0.00 | 0.34 | 0.21 | 55 | 1009.2 |
| 20260505173244 | 65 | 11 | 0.0 | 0.0 | 0.00 | 0.34 | 0.21 | 56 | 1009.1 |
| 20260505172744 | 65 | 11 | 0.0 | 7.0 | 0.00 | 0.34 | 0.21 | 56 | 1009.1 |
| 20260505172244 | 65 | 300 | 0.0 | 9.0 | 0.00 | 0.34 | 0.21 | 56 | 1009.1 |
| 20260505171744 | 65 | 300 | 0.0 | 0.0 | 0.00 | 0.34 | 0.21 | 54 | 1009.1 |
| 20260505171244 | 65 | 300 | 0.0 | 0.0 | 0.00 | 0.34 | 0.21 | 53 | 1009.1 |
| 20260505170744 | 66 | 300 | 0.0 | 0.0 | 0.00 | 0.34 | 0.21 | 53 | 1009.1 |
| 20260505170244 | 66 | 300 | 0.0 | 0.0 | 0.00 | 0.34 | 0.21 | 52 | 1009.1 |
| 20260505165744 | 67 | 300 | 0.0 | 0.0 | 0.00 | 0.34 | 0.21 | 51 | 1009.2 |
| 20260505165244 | 67 | 300 | 0.0 | 0.0 | 0.00 | 0.34 | 0.21 | 50 | 1009.2 |
| 20260505164744 | 68 | 300 | 0.0 | 0.0 | 0.00 | 0.34 | 0.21 | 49 | 1009.3 |
| 20260505164244 | 69 | 300 | 0.0 | 0.0 | 0.00 | 0.34 | 0.21 | 50 | 1009.3 |
| 20260505163744 | 69 | 300 | 0.0 | 0.0 | 0.00 | 0.34 | 0.21 | 49 | 1009.3 |
| 20260505163244 | 68 | 300 | 0.0 | 0.0 | 0.00 | 0.34 | 0.21 | 51 | 1009.3 |
| 20260505162744 | 68 | 300 | 0.0 | 0.0 | 0.00 | 0.34 | 0.21 | 51 | 1009.2 |
| 20260505162244 | 68 | 300 | 0.0 | 0.0 | 0.00 | 0.34 | 0.21 | 51 | 1009.3 |
| 20260505161744 | 67 | 300 | 0.0 | 0.0 | 0.00 | 0.34 | 0.21 | 52 | 1009.2 |
| 20260505161244 | 68 | 300 | 0.0 | 0.0 | 0.00 | 0.34 | 0.21 | 52 | 1009.3 |
| 20260505160744 | 68 | 300 | 0.0 | 0.0 | 0.00 | 0.34 | 0.21 | 53 | 1009.4 |
| 20260505160244 | 68 | 300 | 0.0 | 0.0 | 0.00 | 0.34 | 0.21 | 54 | 1009.4 |
| 20260505153244 | 66 | 300 | 0.0 | 0.0 | 0.00 | 0.35 | 0.21 | 56 | 1009.6 |
| 20260505152744 | 66 | 300 | 0.0 | 0.0 | 0.00 | 0.35 | 0.21 | 58 | 1009.6 |
| 20260505152244 | 66 | 300 | 0.0 | 0.0 | 0.00 | 0.35 | 0.21 | 58 | 1009.5 |
| 20260505151744 | 66 | 300 | 0.0 | 0.0 | 0.00 | 0.35 | 0.21 | 59 | 1009.6 |
| 20260505151244 | 66 | 300 | 0.0 | 0.0 | 0.00 | 0.35 | 0.21 | 58 | 1009.5 |